This demonstration page uses our WeatherBlox Daily Observations layout. Learn more.

Left ArrowRight Arrow

39.01783, -85.05884

Hourly Observations for August 11, 2021

Temp ( °F °C ) Dew Point ( °F °C ) Humidity (%) Winds ( mph kmh ) Pressure ( in mb ) Visibility ( mi km ) Precip ( " mm )
12:52 am 00:52 Mostly Clear 79 26.1 74 23.3 85 85 SSW 10 17 30.01 1016 10 16 0.00 0.00
1:52 am 01:52 Mostly Clear 78 25.6 73 22.8 85 85 SW 8 13 30.02 1017 10 16 0.00 0.00
2:52 am 02:52 Mostly Clear 78 25.6 73 22.8 85 85 SW 7 11 30.01 1016 10 16 0.00 0.00
3:52 am 03:52 Partly Cloudy 78 25.6 73 22.8 85 85 SW 7 11 30.01 1016 10 16 0.00 0.00
4:52 am 04:52 Partly Cloudy 75 23.9 72 22.2 90 90 S 7 11 30.00 1016 8 13 0.00 0.00
5:52 am 05:52 Mostly Cloudy 76 24.4 72 22.2 88 88 S 9 15 30.00 1016 8 13 0.00 0.00
6:52 am 06:52 Mostly Cloudy 76 24.4 72 22.2 88 88 SSW 8 13 30.00 1016 9 14 0.00 0.00
7:52 am 07:52 Mostly Cloudy 77 25 72 22.2 85 85 SSW 6 9 30.01 1016 8 13 0.00 0.00
8:52 am 08:52 Mostly Cloudy 79 26.1 73 22.8 82 82 SSW 8 13 30.02 1017 10 16 0.00 0.00
9:52 am 09:52 Mostly Cloudy 82 27.8 73 22.8 74 74 SSW 12 19 30.02 1017 10 16 0.00 0.00
10:52 am 10:52 Mostly Cloudy 84 28.9 73 22.8 70 70 SSW 10 17 30.02 1017 10 16 0.00 0.00
11:52 am 11:52 Mostly Cloudy 85 29.4 74 23.3 70 70 SSW 13 20 30.04 1017 10 16 0.00 0.00
12:52 pm 12:52 Mostly Cloudy 86 30 74 23.3 67 67 SSW 13 20 30.05 1018 10 16 0.00 0.00
1:52 pm 13:52 Mostly Cloudy 88 31.1 73 22.8 61 61 SW 9 15 30.02 1017 10 16 0.00 0.00
2:52 pm 14:52 Mostly Cloudy 90 32.2 73 22.8 58 58 SW 13 20 30.01 1016 10 16 0.00 0.00
3:52 pm 15:52 Mostly Cloudy 92 33.3 72 22.2 52 52 SW 17 28 29.99 1016 10 16 0.00 0.00
4:52 pm 16:52 Mostly Cloudy 92 33.3 72 22.2 52 52 WSW 8 13 29.97 1015 10 16 0.00 0.00
5:52 pm 17:52 Mostly Cloudy 90 32.2 70 21.1 52 52 SSW 13 20 29.93 1014 10 16 0.00 0.00
6:52 pm 18:52 Partly Cloudy 89 31.7 71 21.7 55 55 SSW 9 15 29.92 1013 10 16 0.00 0.00
7:52 pm 19:52 Sunny 86 30 71 21.7 61 61 SW 5 7 29.93 1014 10 16 0.00 0.00
8:52 pm 20:52 Partly Cloudy 83 28.3 70 21.1 65 65 S 7 11 29.96 1015 10 16 0.00 0.00
9:52 pm 21:52 Partly Cloudy with Light Rain 82 27.8 71 21.7 69 69 SSW 8 13 29.98 1015 10 16 0.00 0.00
10:52 pm 22:52 Partly Cloudy 82 27.8 71 21.7 69 69 SSW 8 13 29.99 1016 10 16 0.00 0.00
11:52 pm 23:52 Partly Cloudy 81 27.2 71 21.7 72 72 SSW 12 19 29.98 1015 10 16 0.00 0.00

Powered by AerisWeather